BLITS DEB

Satellite information

Favourite Embed

Satellite Type and Status

DEBRISIN ORBIT

Key statistics

Satellite BLITS DEB at a glance.

Uptime

5931

Days in orbit

Revolutions

≈ 14.2

Per day

Orbit

SSO

Sun Synchronous Orbit

Inclination

98.7

Latest

Satellite identification and parameters

Extended collection of information and parameters for BLITS DEB.

Object identification

Identified? True

Debris? True

Object name: BLITS DEB

International designator: 2009-049J

Object number (NORAD): 39119

Object ID (CCSDS): 39119

Country: COMMONWEALTH OF INDEPENDENT STATES (CIS)

Current information (Y/N): Y

RCS size: SMALL

Orbital parameters

Period: 101.22 minutes

Inclination: 98.7398 deg

SMA: 7194.557 km

Apoapsis: 820.08 km

Periapsis: 812.764 km

RAAN: 304.9464 deg

Eccentricy: 0.00050841

Argument of periapsis: 123.4742 deg

Mean anomaly: 236.6923 deg

Mean motion: 14.22645464 rev/day

Mean motion (dot): 0.00000242 rev/day2

B* drag term: 0.00012779098 1/REarth

Two-line elements (TLE)

Creation date: Dec. 11, 2025, 7:14 p.m.

Reference frame: TEME

Reference center: EARTH

Epoch: Dec. 11, 2025, 9:19 a.m. UTC

TLE line 0: 0 BLITS DEB

TLE line 1: 1 39119U 09049J 25345.38841922 .00000242 00000-0 12779-3 0 9998

TLE line 2: 2 39119 98.7398 304.9464 0005084 123.4742 236.6923 14.22645464667928

Live tracking on map

Real-time ground track for satellite BLITS DEB.

In-orbit conjunctions

A list of the most updated potential collisions computed for object BLITS DEB.

Target Orbit TCA Probability of collision Miss distance Type
METEOR 2-8 DEB LEO 2025-08-23 20:40:49 0.0001140376 61.0 (m) DEBRIS
COSMOS 1275 DEB LEO 2024-11-06 16:29:05 0.0001070254 346.0 (m) DEBRIS
IRIDIUM 33 DEB LEO 2024-09-25 22:18:27 0.0003929813 104.0 (m) DEBRIS

Associated space launch

Russian meteorology satellite

BLITS DEB was lifted into orbit during the mission ‘Soyuz 2.1b/Fregat | Meteor-M 1’, on board a Soyuz 2.1b/Fregat space rocket.

The launch took place on Sept. 17, 2009, 3:55 p.m. from 31/6.

For more information about the launch, click the button.

Launch to space Soyuz 2.1b/Fregat | Meteor-M 1
Soyuz 2.1b/Fregat | Meteor-M 1

Agency: N/A

Status: Launch Successful

Launch date: Sept. 17, 2009, 3:55 p.m. UTC

Rocket: Soyuz 2.1b/Fregat

Launch pad: 31/6

Location: Baikonur Cosmodrome, Republic of Kazakhstan

...

Latest news about this satellite

There are no fresh news available about this satellite. Check back as we update our databases every day.


Newsletter sign-up

Weekly statistics, charts and insights to help you stay on top of the space industry.